This demonstration page uses our WeatherBlox Daily Observations layout. Learn more.

Left ArrowRight Arrow

36.17497, -115.13722

Hourly Observations for December 1, 2019

Temp ( °F °C ) Dew Point ( °F °C ) Humidity (%) Winds ( mph kmh ) Pressure ( in mb ) Visibility ( mi km ) Precip ( " mm )
12:53 am 00:53 Mostly Cloudy 42 5.6 30 -1.1 62 62 S 5 7 30.26 1025 10 16 0.00 0.00
1:53 am 01:53 Partly Cloudy 41 5 29 -1.7 62 62 SW 3 6 30.27 1025 10 16 0.00 0.00
2:53 am 02:53 Mostly Cloudy 41 5 30 -1.1 65 65 Calm 30.27 1025 10 16 0.00 0.00
3:53 am 03:53 Cloudy 41 5 30 -1.1 65 65 NNW 5 7 30.27 1025 10 16 0.00 0.00
4:53 am 04:53 Cloudy 42 5.6 29 -1.7 60 60 NNW 6 9 30.28 1025 10 16 0.00 0.00
5:53 am 05:53 Cloudy 42 5.6 29 -1.7 60 60 NNW 5 7 30.28 1025 10 16 0.00 0.00
6:53 am 06:53 Cloudy 41 5 30 -1.1 65 65 SSE 3 6 30.31 1026 10 16 0.00 0.00
7:53 am 07:53 Sunny 41 5 29 -1.7 62 62 SSE 5 7 30.33 1027 10 16 0.00 0.00
8:53 am 08:53 Sunny 42 5.6 29 -1.7 60 60 Calm 30.34 1027 10 16 0.00 0.00
9:53 am 09:53 Mostly Cloudy 44 6.7 29 -1.7 55 55 Calm 30.34 1027 10 16 0.00 0.00
10:53 am 10:53 Cloudy 47 8.3 27 -2.8 46 46 E 5 7 30.32 1027 10 16 0.00 0.00
11:53 am 11:53 Partly Cloudy 48 8.9 27 -2.8 44 44 ESE 5 7 30.29 1026 10 16 0.00 0.00
12:53 pm 12:53 Sunny 49 9.4 25 -3.9 39 39 SSE 5 7 30.27 1025 10 16 0.00 0.00
1:53 pm 13:53 Sunny 50 10 23 -5 35 35 ESE 5 7 30.27 1025 10 16 0.00 0.00
2:53 pm 14:53 Sunny 50 10 25 -3.9 38 38 ESE 6 9 30.27 1025 10 16 0.00 0.00
3:53 pm 15:53 Sunny 49 9.4 26 -3.3 41 41 SE 7 11 30.27 1025 10 16 0.00 0.00
4:53 pm 16:53 Clear 48 8.9 27 -2.8 44 44 SE 7 11 30.27 1025 10 16 0.00 0.00
5:53 pm 17:53 Clear 47 8.3 28 -2.2 48 48 S 5 7 30.27 1025 10 16 0.00 0.00
6:53 pm 18:53 Clear 47 8.3 27 -2.8 46 46 SSW 6 9 30.29 1026 10 16 0.00 0.00
7:53 pm 19:53 Clear 45 7.2 27 -2.8 49 49 Calm 30.30 1026 10 16 0.00 0.00
8:53 pm 20:53 Clear 44 6.7 29 -1.7 55 55 S 3 6 30.30 1026 10 16 0.00 0.00
9:53 pm 21:53 Clear 43 6.1 28 -2.2 56 56 Calm 30.30 1026 10 16 0.00 0.00
10:53 pm 22:53 Clear 41 5 30 -1.1 65 65 W 3 6 30.30 1026 10 16 0.00 0.00
11:53 pm 23:53 Clear 40 4.4 30 -1.1 68 68 NNW 5 7 30.29 1026 10 16 0.00 0.00

Powered by AerisWeather